sat.trackr.live / text

‹ back to catalog

STARLINK-2266

NORAD 47997 · 2021-024W

PAYLOAD ACTIVE UNKNOWN

§ Identity

Operator
Country
US
Launch date
2021-03-24
Launch site
AFETR
Launch vehicle
Mass (kg)
RCS (m²)

Purposes: comms

External: N2YO · Heavens-Above · Gunter

§ Orbital elements

Epoch: 2026-05-25T04:34:55.100064Z

Period
94.01 min
Inclination
53.1595°
Eccentricity
0.0001749
Mean motion
15.31703204 rev/d
Perigee alt
469.5 km
Apogee alt
471.9 km
Semi-major
6,848.9 km
B*
8.0792e-6
RAAN
310.9576°
Arg perigee
72.7991°
Mean anomaly
287.3201°
Rev number
28,670

§ Raw data

STARLINK-22661 47997U 21024W   26145.19091551 -.00000115  00000+0  80792-5 0  99922 47997  53.1595 310.9576 0001749  72.7991 287.3201 15.31703204286705

JSON: /api/v1/satellites/47997 · /tle

For live sub-satellite position, see the globe view (requires WebGL).

§ Visibility from observer

Set your observer location to see the next 7 days of passes ≥ 10°. The values pass through the URL so the page stays shareable.

No JS? Fill the form by hand. The geolocation button needs JavaScript.